This is the latest recevied weather packets stored in our database for station/object W8LMG. If no packets are shown the sender has not sent any weather packets the latest 10 day(s).
| Time | Temp. | Humidity | Pressure | Rain* | Wind** | Luminosity | Snow |
|---|---|---|---|---|---|---|---|
| 1777878015 | 6.67° C | 93% | 1016.5 hPa | 0 mm | - | 0 W/m² | - |
| 1777877710 | 6.67° C | 92% | 1016.5 hPa | 0 mm | - | 0 W/m² | - |
| 1777877408 | 6.67° C | 92% | 1016.8 hPa | 0 mm | - | 0 W/m² | - |
| 1777877105 | 6.67° C | 92% | 1017.1 hPa | 0 mm | - | 0 W/m² | - |
| 1777876803 | 6.67° C | 91% | 1017 hPa | 0 mm | - | 0 W/m² | - |
| 1777876500 | 6.67° C | 91% | 1017.1 hPa | 0 mm | - | 0 W/m² | - |
| 1777876196 | 6.67° C | 90% | 1017.2 hPa | 0 mm | - | 0 W/m² | - |
| 1777875893 | 7.22° C | 89% | 1017.5 hPa | 0 mm | - | 0 W/m² | - |
| 1777875589 | 7.22° C | 87% | 1017.4 hPa | 0 mm | - | 0 W/m² | - |
| 1777875285 | 7.22° C | 83% | 1017.5 hPa | 0 mm | - | 0 W/m² | - |
| 1777874983 | 7.78° C | 84% | 1017.6 hPa | 0 mm | - | 0 W/m² | - |
| 1777874679 | 7.78° C | 81% | 1017.7 hPa | 0 mm | - | 0 W/m² | - |
| 1777874375 | 8.33° C | 74% | 1017.7 hPa | 0 mm | - | 0 W/m² | - |
| 1777874073 | 8.33° C | 68% | 1017.6 hPa | 0 mm | - | 0 W/m² | - |
| 1777873771 | 7.22° C | 71% | 1017.7 hPa | 0 mm | - | 0 W/m² | - |
| 1777873467 | 7.22° C | 72% | 1017.1 hPa | 0 mm | - | 0 W/m² | - |
| 1777873164 | 7.22° C | 75% | 1017 hPa | 0 mm | - | 0 W/m² | - |
| 1777872861 | 7.22° C | 74% | 1017 hPa | 0 mm | - | 0 W/m² | - |
| 1777872559 | 7.22° C | 75% | 1016.8 hPa | 0 mm | - | 0 W/m² | - |
| 1777872256 | 7.22° C | 75% | 1016.7 hPa | 0 mm | - | 0 W/m² | - |
| 1777871954 | 7.22° C | 72% | 1016.7 hPa | 0 mm | - | 0 W/m² | - |
| 1777871649 | 7.22° C | 73% | 1016.5 hPa | 0 mm | - | 0 W/m² | - |
| 1777871346 | 7.22° C | 73% | 1016.5 hPa | 0 mm | - | 0 W/m² | - |
| 1777871044 | 7.22° C | 73% | 1016.7 hPa | 0 mm | - | 0 W/m² | - |
| 1777870740 | 7.22° C | 73% | 1016.7 hPa | 0 mm | - | 0 W/m² | - |
* Rain latest hour (hover to see other rain measurements)
** Current wind speed in m/s (hover to see current wind gust speed)